Location: ?????
(38.2579°N, 22.9711°E)
Time: 23:18:54
(UTC+00:00)

Daily predictions for brighter satellites

Satellite Brightness Start Highest point End
(mag) Time Altitude Azimuth Time Altitude Azimuth Time Altitude Azimuth
Cosmos 1726 Rocket 4.1 15:30:50 10° SSE 15:35:11 42° E 15:39:31 10° NNE
Cosmos 1900 4.4 15:31:10 10° NNW 15:36:08 60° ENE 15:40:59 10° SE
Cosmos 2151 2.9 15:32:07 10° N 15:36:17 80° E 15:40:27 10° S
SMAP 3.2 15:33:51 10° SSE 15:38:20 50° ENE 15:42:51 10° N
BREEZE-M DEB (TANK) 4.2 15:35:39 10° NNW 15:38:37 25° NNE 15:45:32 10° E
IRIDIUM 104 4.3 15:34:49 10° N 15:40:03 72° E 15:45:14 10° S
Meteor 1-20 Rocket 4.1 15:34:41 10° N 15:40:09 76° E 15:45:38 10° SSE
Cosmos 2297 Rocket 2.6 15:36:50 10° NNW 15:42:29 70° WSW 15:48:04 10° SSE
Landsat 7 4.1 15:38:08 10° SE 15:42:31 43° ENE 15:46:55 10° N
Hubble Space Telescope 2.9 15:41:11 10° SSW 15:43:41 17° S 15:46:10 10° SE
GEOS 3 Rocket 3.8 15:39:59 10° NNE 15:45:23 81° NW 15:50:44 10° SW
Cosmos 2084 Rocket 3.4 15:42:17 10° NNW 15:46:31 87° ENE 15:50:42 10° SSE
YAOGAN 1 4.3 15:45:25 10° E 15:47:11 12° ENE 15:48:56 10° NE
Cosmos 1602 Rocket 3.9 15:44:11 10° NNW 15:48:32 71° W 15:52:48 10° S
IRIDIUM 114 4.4 15:43:56 10° N 15:49:11 88° E 15:54:24 10° S
Cosmos 990 Rocket 4.3 15:45:05 10° SSW 15:50:10 71° WNW 15:55:19 10° NNE
COSMOS 2455 4.1 15:47:05 10° SSE 15:51:23 21° ESE 15:55:26 11° ENE
SL-16 R/B 3.5 15:47:28 10° N 15:53:23 47° WNW 15:59:14 10° SW
BREEZE M DEB (TANK) 4.1 15:53:35 10° WNW 15:55:18 16° NNW 15:56:42 10° NNE
Okean 1-7 Rocket 3.6 15:51:38 10° N 15:56:02 89° WSW 16:00:22 10° S
CORIOLIS 4.2 15:54:10 10° SSE 15:59:29 90° E 16:04:51 10° NNW
Cosmos 1980 Rocket 2.2 15:55:01 10° SSW 16:00:39 75° ESE 16:06:18 10° NNE
Okean 1 4.2 15:58:47 10° SE 16:01:42 24° E 16:04:05 13° NE
SKYMED 2 4.2 15:59:13 10° NNE 16:03:12 34° E 16:07:08 10° SSE
Aureole 1 Rocket 3.2 15:59:56 10° S 16:04:06 70° ESE 16:09:28 10° NNE
Cosmos 2219 4.0 16:00:33 10° N 16:05:32 29° ENE 16:10:29 10° ESE
ARIANE 5 R/B 2.4 16:04:32 10° SSE 16:09:34 79° ENE 16:14:42 10° N
IRS-1C 4.1 16:05:01 10° SSE 16:10:20 79° ENE 16:15:40 10° N
Cosmos 1953 Rocket 3.6 16:08:54 10° N 16:13:17 56° E 16:17:39 10° SSE
Cosmos 2263 Rocket 2.3 16:08:35 10° NNW 16:14:07 50° ENE 16:19:37 10° SE
Cosmos 1867 3.9 16:10:25 10° NW 16:15:50 70° WSW 16:21:13 10° SSE
Helios 1A Rocket 3.9 16:18:12 19° ESE 16:18:12 19° ESE 16:20:27 10° SE
Cosmos 2369 3.8 16:12:35 10° S 16:18:09 57° ESE 16:23:23 12° NNE
Meteor 1-5 Rocket 4.1 16:13:17 10° N 16:18:43 81° E 16:24:17 10° S
Cosmos 1825 Rocket 4.0 16:16:52 10° NNW 16:21:07 63° W 16:25:21 10° S
SAR-Lupe-4 3.8 16:18:58 10° S 16:22:29 72° WSW 16:26:02 10° NNW
Meteor 2-10 4.2 16:18:54 10° N 16:24:17 55° E 16:29:46 10° SSE
COSMO-SKYMED 1 2.9 16:22:48 18° NE 16:25:22 38° E 16:29:12 10° SSE
Cosmos 1076 Rocket 3.5 16:24:01 10° N 16:28:21 86° W 16:32:39 10° S
Cosmos 1655 Rocket 4.0 16:22:52 10° N 16:29:09 89° ESE 16:35:21 10° S
SPOT 1/Viking Rocket 3.5 16:28:16 10° SSE 16:33:24 63° ENE 16:38:32 10° N
USA 81 3.9 16:28:37 10° N 16:33:52 69° E 16:39:06 10° SSE
Cosmos 2227 Rocket 2.7 16:28:34 10° NNW 16:34:08 61° WSW 16:39:40 10° S
Cosmos 2221 4.2 16:36:48 10° SE 16:38:13 17° SE 16:38:13 17° SE
Cosmos 2058 Rocket 3.4 16:39:17 10° SSW 16:43:43 70° W 16:48:13 10° N
Cosmos 2333 Rocket 3.2 16:43:13 10° SSE 16:47:30 26° ESE 16:47:30 26° ESE
Cosmos 1538 Rocket 4.1 16:44:44 10° NNW 16:50:02 79° WSW 16:55:22 10° SSE
Cosmos 2322 Rocket 3.6 16:54:33 10° SSE 16:57:11 21° SE 16:57:11 21° SE
USA 59 Rocket 1.6 16:57:20 10° S 16:59:18 20° SSE 16:59:18 20° SSE
Resurs 1-3 3.4 16:59:30 10° SSE 17:03:46 86° ENE 17:08:06 10° N
Cosmos-2242 4.3 17:03:02 10° SSW 17:07:00 38° WNW 17:11:00 10° N
USA 308 3.4 17:06:34 10° SW 17:08:32 38° SSW 17:08:32 38° SSW
Spot 4 Rocket 4.0 17:05:11 10° SSE 17:10:17 83° WSW 17:15:26 10° NNW
SJ-7 4.2 17:06:54 10° S 17:14:36 - NNW 17:10:21 72° SW
Cosmos 1553 Rocket 4.2 17:06:42 10° SSW 17:12:49 70° W 17:19:05 10° N
Nadezhda 2 Rocket 4.4 17:06:45 10° N 17:12:52 84° W 17:18:58 10° S
S3M 4.0 17:07:11 10° SSE 17:13:21 55° E 17:14:31 48° NE
DMSP B5D1-3 4.3 17:15:03 66° ENE 17:15:28 71° ESE 17:20:29 10° S
IRAS Rocket 4.1 17:10:59 10° SSE 17:16:27 86° ENE 17:21:57 10° NNW
YAOGAN 1 3.2 17:18:22 10° S 17:22:31 54° W 17:26:42 10° NNW
Cosmos 2082 3.7 17:17:03 10° NNW 17:22:47 83° WSW 17:28:29 10° SSE
Hubble Space Telescope 2.8 17:20:22 10° SW 17:22:42 17° S 17:22:42 17° S
Meteor 2-6 Rocket 4.4 17:20:08 10° SSW 17:25:45 74° W 17:29:21 24° N
SL-16 R/B 2.0 17:23:27 10° SSW 17:29:07 85° ESE 17:29:26 79° NE
Cosmos 923 Rocket 4.0 17:26:21 10° NNW 17:31:32 78° WSW 17:32:38 55° S
Cosmos 1745 Rocket 3.8 17:28:42 10° N 17:36:52 45° SSE 17:40:58 10° S
COSMOS 2455 3.3 17:30:51 10° SW 17:36:46 58° WNW 17:38:36 41° N
BREEZE-M DEB (TANK) 4.0 17:27:56 10° WNW 17:44:09 56° NNE 17:44:17 56° NNE
Cosmos 2278 4.1 17:49:15 10° SSW 17:54:09 61° WSW 17:54:09 61° WSW
Cosmos 2360 Rocket 4.0 18:11:11 10° SSW 18:13:06 22° SSW 18:13:06 22° SSW
Cosmos 2333 Rocket 3.9 18:26:31 10° SW 18:29:34 28° WSW 18:29:34 28° WSW
Cosmos 2322 Rocket 4.4 18:37:27 10° SW 18:39:03 19° SW 18:39:03 19° SW
